Change the Weather History Date:

Sunday, May 18, 2014

  Actual Average Record
Temperature  
Mean Temperature 54 °F -  
Max Temperature 62 °F 52 °F 71 °F (2002)
Min Temperature 46 °F 36 °F 24 °F (1956)
Degree Days  
Heating Degree Days 11    
Growing Degree Days 4 (Base 50)    
Moisture  
Dew Point 30 °F    
Average Humidity 40    
Maximum Humidity 62    
Minimum Humidity 25    
Precipitation  
Precipitation 0.00 in - - ()
Sea Level Pressure  
Sea Level Pressure 29.78 in    
Wind  
Wind Speed 6 mph (NNE)    
Max Wind Speed 16 mph    
Max Gust Speed 21 mph    
Visibility 10 miles    
Events      
Averages and records for this station are not official NWS values.
T = Trace of Precipitation, MM = Missing Value Source: NWS Daily Summary

Daily Weather History Graph

Daily Weather History Graph

Search for Another Location

Airport or City:

Trip Planner

Search our weather history database for the weather conditions in past years. The results will help you decide how hot, cold, wet, or windy it might be!

Date:

Astronomy

May. 18, 2014 Rise Set
Actual Time 5:15 AM AKDT 10:47 PM AKDT
Civil Twilight 4:06 AM AKDT 11:57 PM AKDT
Nautical Twilight 2:33 AM AKDT 1:28 AM AKDT
Astronomical Twilight Sun does not rise Sun does not rise
Moon 1:40 AM AKDT (5/18) 9:32 AM AKDT (5/18)
Length of Visible Light 19h 51m
Length of Day
17h 32m
Waning Gibbous, 79% of the Moon is Illuminated
May 18
Waning Gibbous
May 21
Last Quarter
May 28
New
Jun 5
First Quarter
Jun 12
Full

Hourly Weather History & Observations

Time (AKDT) Temp. Windchill Dew Point Humidity Pressure Visibility Wind Dir Wind Speed Gust Speed Precip Events Conditions
12:16 AM 59.0 °F - 35.6 °F 42% 29.82 in 6.0 mi WSW 9.2 mph - N/A   Clear
12:36 AM 57.2 °F - 35.6 °F 44% 29.81 in 7.0 mi WSW 8.1 mph - N/A   Clear
12:56 AM 57.2 °F - 35.6 °F 44% 29.81 in 10.0 mi WSW 5.8 mph - N/A   Clear
1:16 AM 57.2 °F - 35.6 °F 44% 29.82 in 9.0 mi WSW 4.6 mph - N/A   Clear
1:36 AM 55.4 °F - 35.6 °F 47% 29.82 in 8.0 mi Calm Calm - N/A   Clear
1:56 AM 53.6 °F - 35.6 °F 51% 29.82 in 10.0 mi East 3.5 mph - N/A   Clear
2:16 AM 51.8 °F - 35.6 °F 54% 29.82 in 10.0 mi ESE 3.5 mph - N/A   Clear
2:36 AM 50.0 °F - 35.6 °F 58% 29.82 in 10.0 mi East 3.5 mph - N/A   Clear
2:56 AM 50.0 °F - 35.6 °F 58% 29.82 in 10.0 mi Calm Calm - N/A   Clear
3:16 AM 51.8 °F - 35.6 °F 54% 29.82 in 10.0 mi East 3.5 mph - N/A   Clear
3:36 AM 51.8 °F - 35.6 °F 54% 29.82 in 10.0 mi East 3.5 mph - N/A   Clear
3:56 AM 50.0 °F - 33.8 °F 54% 29.82 in 10.0 mi Calm Calm - N/A   Clear
4:16 AM 51.8 °F - 33.8 °F 50% 29.82 in 10.0 mi Calm Calm - N/A   Clear
4:36 AM 51.8 °F - 33.8 °F 50% 29.82 in 10.0 mi Calm Calm - N/A   Clear
4:56 AM 48.2 °F - 33.8 °F 58% 29.81 in 10.0 mi Calm Calm - N/A   Clear
5:16 AM 48.2 °F - 33.8 °F 58% 29.81 in 10.0 mi Calm Calm - N/A   Clear
5:36 AM 48.2 °F - 33.8 °F 58% 29.81 in 10.0 mi Calm Calm - N/A   Clear
5:56 AM 46.4 °F 45.2 °F 33.8 °F 62% 29.82 in 10.0 mi WNW 3.5 mph - N/A   Clear
6:16 AM 46.4 °F 44.3 °F 33.8 °F 62% 29.82 in 10.0 mi West 4.6 mph - N/A   Clear
6:36 AM 46.4 °F 45.2 °F 33.8 °F 62% 29.81 in 10.0 mi WSW 3.5 mph - N/A   Clear
6:56 AM 46.4 °F - 33.8 °F 62% 29.82 in 10.0 mi Calm Calm - N/A   Partly Cloudy
7:16 AM 48.2 °F - 35.6 °F 62% 29.81 in 10.0 mi Calm Calm - N/A   Scattered Clouds
7:36 AM 48.2 °F - 35.6 °F 62% 29.81 in 10.0 mi Calm Calm - N/A   Overcast
7:56 AM 51.8 °F - 37.4 °F 58% 29.81 in 10.0 mi Calm Calm - N/A   Overcast
8:16 AM 53.6 °F - 35.6 °F 51% 29.82 in 10.0 mi ENE 3.5 mph - N/A   Overcast
8:36 AM 53.6 °F - 33.8 °F 47% 29.82 in 10.0 mi NE 5.8 mph - N/A   Mostly Cloudy
8:56 AM 55.4 °F - 32.0 °F 41% 29.82 in 10.0 mi ENE 6.9 mph - N/A   Mostly Cloudy
9:16 AM 55.4 °F - 33.8 °F 44% 29.82 in 10.0 mi ENE 10.4 mph - N/A   Mostly Cloudy
9:36 AM 55.4 °F - 32.0 °F 41% 29.82 in 10.0 mi ENE 10.4 mph - N/A   Mostly Cloudy
9:56 AM 55.4 °F - 32.0 °F 41% 29.82 in 10.0 mi NE 8.1 mph - N/A   Partly Cloudy
10:16 AM 55.4 °F - 32.0 °F 41% 29.82 in 10.0 mi ENE 6.9 mph - N/A   Clear
10:36 AM 57.2 °F - 32.0 °F 38% 29.81 in 10.0 mi NE 8.1 mph - N/A   Clear
10:56 AM 57.2 °F - 30.2 °F 36% 29.81 in 10.0 mi NNE 6.9 mph - N/A   Clear
11:16 AM 57.2 °F - 32.0 °F 38% 29.81 in 10.0 mi NNE 4.6 mph - N/A   Clear
11:36 AM 57.2 °F - 30.2 °F 36% 29.80 in 10.0 mi NNE 8.1 mph - N/A   Clear
11:56 AM 59.0 °F - 32.0 °F 36% 29.80 in 10.0 mi North 3.5 mph - N/A   Clear
12:16 PM 60.8 °F - 32.0 °F 34% 29.79 in 10.0 mi NE 10.4 mph - N/A   Clear
12:36 PM 60.8 °F - 32.0 °F 34% 29.78 in 10.0 mi Calm Calm - N/A   Scattered Clouds
12:56 PM 59.0 °F - 28.4 °F 31% 29.77 in 10.0 mi Calm Calm - N/A   Scattered Clouds
1:16 PM 60.8 °F - 26.6 °F 27% 29.77 in 10.0 mi NNE 9.2 mph - N/A   Clear
1:36 PM 62.6 °F - 26.6 °F 26% 29.77 in 10.0 mi NE 5.8 mph - N/A   Scattered Clouds
1:56 PM 60.8 °F - 30.2 °F 31% 29.76 in 10.0 mi North 4.6 mph - N/A   Scattered Clouds
2:16 PM 62.6 °F - 26.6 °F 26% 29.76 in 10.0 mi WNW 9.2 mph 20.7 mph N/A   Mostly Cloudy
2:36 PM 62.6 °F - 30.2 °F 30% 29.75 in 10.0 mi WNW 16.1 mph - N/A   Overcast
2:56 PM 60.8 °F - 28.4 °F 29% 29.76 in 10.0 mi WNW 13.8 mph - N/A   Overcast
3:16 PM 60.8 °F - 28.4 °F 29% 29.75 in 10.0 mi NNW 5.8 mph - N/A   Overcast
3:36 PM 60.8 °F - 28.4 °F 29% 29.75 in 10.0 mi NNW 4.6 mph - N/A   Overcast
3:56 PM 60.8 °F - 28.4 °F 29% 29.74 in 10.0 mi North 4.6 mph - N/A   Overcast
4:16 PM 60.8 °F - 28.4 °F 29% 29.74 in 10.0 mi North 8.1 mph - N/A   Overcast
4:36 PM 60.8 °F - 28.4 °F 29% 29.74 in 10.0 mi NNW 6.9 mph - N/A   Overcast
4:56 PM 60.8 °F - 26.6 °F 27% 29.74 in 10.0 mi NNE 9.2 mph - N/A   Overcast
5:16 PM 60.8 °F - 26.6 °F 27% 29.73 in 10.0 mi North 8.1 mph 16.1 mph N/A   Overcast
5:36 PM 60.8 °F - 26.6 °F 27% 29.73 in 10.0 mi NNE 10.4 mph - N/A   Overcast
5:56 PM 60.8 °F - 24.8 °F 25% 29.73 in 10.0 mi NNE 10.4 mph 18.4 mph N/A   Overcast
6:16 PM 59.0 °F - 24.8 °F 27% 29.73 in 10.0 mi NNE 10.4 mph - N/A   Overcast
6:36 PM 59.0 °F - 26.6 °F 29% 29.73 in 10.0 mi NNE 8.1 mph - N/A   Overcast
6:56 PM 59.0 °F - 24.8 °F 27% 29.73 in 10.0 mi NE 9.2 mph - N/A   Overcast
7:16 PM 57.2 °F - 24.8 °F 29% 29.73 in 10.0 mi NE 11.5 mph - N/A   Overcast
7:36 PM 57.2 °F - 24.8 °F 29% 29.73 in 10.0 mi North 8.1 mph - N/A   Overcast
7:56 PM 57.2 °F - 24.8 °F 29% 29.73 in 10.0 mi NNE 8.1 mph - N/A   Overcast
8:16 PM 57.2 °F - 24.8 °F 29% 29.73 in 10.0 mi North 10.4 mph 16.1 mph N/A   Overcast
8:36 PM 57.2 °F - 24.8 °F 29% 29.74 in 10.0 mi North 13.8 mph 20.7 mph N/A   Mostly Cloudy
8:56 PM 55.4 °F - 23.0 °F 29% 29.74 in 10.0 mi NNE 9.2 mph 20.7 mph N/A   Partly Cloudy
9:16 PM 55.4 °F - 23.0 °F 29% 29.75 in 10.0 mi NNE 8.1 mph 17.3 mph N/A   Scattered Clouds
9:36 PM 53.6 °F - 24.8 °F 33% 29.75 in 10.0 mi NNE 12.7 mph 20.7 mph N/A   Overcast
9:56 PM 53.6 °F - 24.8 °F 33% 29.75 in 10.0 mi North 12.7 mph 17.3 mph N/A   Overcast
10:16 PM 51.8 °F - 24.8 °F 35% 29.76 in 10.0 mi North 9.2 mph 16.1 mph N/A   Overcast
10:36 PM 50.0 °F - 23.0 °F 35% 29.77 in 10.0 mi North 10.4 mph 17.3 mph N/A   Overcast
10:56 PM 48.2 °F - 21.2 °F 34% 29.77 in 10.0 mi North 8.1 mph 20.7 mph N/A   Overcast
11:16 PM 48.2 °F - 23.0 °F 37% 29.78 in 10.0 mi NNE 9.2 mph 17.3 mph N/A   Overcast
11:36 PM 48.2 °F - 21.2 °F 34% 29.78 in 10.0 mi North 6.9 mph 18.4 mph N/A   Overcast
11:56 PM 46.4 °F 42.4 °F 23.0 °F 40% 29.79 in 10.0 mi NNE 8.1 mph 16.1 mph N/A   Overcast